Location: Gellin
(53.4498°N, 14.3207°E)
Time: 06:22:35
(UTC+00:00)

Meteor 1-18 Rocket - Visible Passes

Search period start: 21 June 2021 00:00
Search period end: 01 July 2021 00:00
Orbit: 837 x 909 km, 81.2° (Epoch: 20 June)

Date Brightness Start Highest point End Pass type
(mag) Time Alt. Az. Time Alt. Az. Time Alt. Az.
21 Jun 7.5 01:05:59 10° NNE 01:08:27 13° NE 01:10:54 10° ENE visible
22 Jun 7.4 01:00:30 10° NNE 01:03:08 13° NE 01:05:47 10° ENE visible
23 Jun 7.4 00:55:01 10° NNE 00:57:50 13° NE 01:00:39 10° ENE visible
24 Jun 7.3 00:49:33 10° NNE 00:52:31 14° NE 00:55:30 10° ENE visible
25 Jun 7.2 00:44:06 10° NNE 00:47:13 14° NE 00:50:20 10° E visible
26 Jun 7.2 00:38:38 10° NNE 00:41:53 15° NE 00:45:09 10° E visible
27 Jun 7.1 00:33:12 10° NNE 00:36:35 15° NE 00:39:58 10° E visible
28 Jun 7.1 00:27:45 10° NNE 00:31:16 16° NE 00:34:47 10° E visible
29 Jun 7.0 00:22:19 10° NNE 00:25:57 16° NE 00:29:35 10° E visible
30 Jun 7.0 00:16:53 10° NNE 00:20:38 17° NE 00:24:22 10° E visible
